Location: Proctor
(47.8934°N, 114.3048°W)
Time: 14:33:47
(UTC+00:00)

CAS-6 - Visible Passes

Search period start: 26 June 2022 00:00
Search period end: 06 July 2022 00:00
Orbit: 613 x 635 km, 97.9° (Epoch: 26 June)

Date Brightness Start Highest point End Pass type
(mag) Time Alt. Az. Time Alt. Az. Time Alt. Az.
26 Jun ? 05:30:36 20° SSE 05:33:30 62° ENE 05:37:49 10° N visible
26 Jun ? 07:07:50 11° WSW 07:10:05 15° W 07:12:41 10° NW visible
27 Jun ? 05:49:14 23° SSE 05:51:55 87° WSW 05:56:18 10° NNW visible
28 Jun ? 04:31:35 10° ESE 04:34:34 18° ENE 04:37:33 10° NNE visible
28 Jun ? 06:07:53 24° S 06:10:22 56° W 06:14:40 10° NNW visible
29 Jun ? 04:49:17 10° ESE 04:52:50 26° ENE 04:56:26 10° N visible
29 Jun ? 06:26:32 21° SSW 06:28:52 37° W 06:32:56 10° NNW visible
30 Jun ? 05:07:56 15° SE 05:11:08 37° ENE 05:15:09 10° N visible
30 Jun ? 06:45:11 17° SW 06:47:25 25° W 06:51:01 10° NW visible
01 Jul ? 05:26:35 20° SE 05:29:28 56° ENE 05:33:45 10° N visible
01 Jul ? 07:03:50 12° SW 07:06:01 17° W 07:08:50 10° NW visible
02 Jul ? 05:45:14 24° SSE 05:47:52 86° ENE 05:52:14 10° NNW visible
02 Jul ? 07:23:33 10° WSW 07:24:40 11° W 07:25:48 10° WNW visible
03 Jul ? 04:27:48 10° E 04:30:35 17° ENE 04:33:21 10° NNE visible
03 Jul ? 06:03:53 25° S 06:06:19 62° WSW 06:10:37 10° NNW visible
04 Jul ? 04:45:20 10° ESE 04:48:49 24° ENE 04:52:17 10° N visible
04 Jul ? 06:22:32 23° SSW 06:24:48 40° W 06:28:55 10° NNW visible
05 Jul ? 05:03:56 14° SE 05:07:06 34° ENE 05:11:02 10° N visible
05 Jul ? 06:41:11 18° SW 06:43:20 27° W 06:47:02 10° NW visible
